Regional Weather Roundup
Issued by NWS

Home | Current Version | Previous Version | Text Only | Print | Product List | Glossary Off
Versions: 1 2 3 4 5 6 7 8 9 10 11 12 13 14 15 16 17 18 19 20 21 22 23 24 25 26 27 28 29 30 31 32 33 34 35 36 37 38 39 40 41 42 43 44 45 46 47 48 49 50

000
ASUS44 KMEG 281500
RWRTN
TENNESSEE HOURLY STATE WEATHER ROUNDUP
NATIONAL WEATHER SERVICE MEMPHIS TN
1000 AM CDT THU JUL 28 2016

TNZ002-004-019-021-049-052-054-088>092-281600-
WEST TENNESSEE

CITY           SKY/WX    TMP DP  RH WIND       PRES   REMARKS
MEMPHIS INTL   CLOUDY    81  75  82 W9        29.95S
NWS MEMPHIS      N/A     79 N/A N/A MISG        N/A
JACKSON        CLOUDY    78  77  96 SW7       29.94F
DYERSBURG      CLOUDY    79  73  83 CALM      29.94F
UNION CITY     MOSUNNY   79  77  94 SW3       29.92F
PARIS          CLOUDY    72  72 100 CALM      29.94F
LEXINGTON      CLOUDY    75  75 100 W6        29.93S
$$

TNZ008-025-027-028-033-062-065-066-281600-
NORTH MIDDLE TENNESSEE

CITY           SKY/WX    TMP DP  RH WIND       PRES   REMARKS
NASHVILLE      RAIN      76  74  93 S10       29.93F VSB 1
CLARKSVILLE    LGT RAIN  73  70  90 CALM      29.93S
COOKEVILLE     CLOUDY    81  73  78 SW9       29.95F
CROSSVILLE     CLOUDY    77  68  73 VRB3      30.02S
$$

TNZ061-075-076-078-094-096-097-281600-
SOUTH MIDDLE TENNESSEE

CITY           SKY/WX    TMP DP  RH WIND       PRES   REMARKS
TULLAHOMA      CLOUDY    73  72  94 S10       29.99S
WINCHESTER     CLOUDY    79  72  78 SW12      29.98F
MCMINNVILLE    CLOUDY    79  73  83 VRB7      29.97S
COLUMBIA       CLOUDY   N/A N/A N/A SW9       29.91F
SHELBYVILLE    CLOUDY    77  75  94 S13       29.96F
$$

TNZ017-018-042-046-047-281600-
NORTHEAST TENNESSEE

CITY           SKY/WX    TMP DP  RH WIND       PRES   REMARKS
TRI CITIES     PTSUNNY   81  71  71 W6        30.00F
$$

TNZ012-013-036-069-073-074-281600-
CENTRAL EAST TENNESSEE

CITY           SKY/WX    TMP DP  RH WIND       PRES   REMARKS
KNOXVILLE      CLOUDY    83  68  60 SW16G25   29.98S
OAK RIDGE      CLOUDY    83  69  62 S9        29.99S
GATLINBURG     MOSUNNY   84  68  58 VRB7      29.96F
$$

TNZ083-085-099-281600-
SOUTHEAST TENNESSEE

CITY           SKY/WX    TMP DP  RH WIND       PRES   REMARKS
CHATTANOOGA    PTSUNNY   81  69  67 SW17      30.00S
$$

SKY/WX REPORTED AS FAIR MEANS FEW OR NO CLOUDS BELOW
12 THOUSAND FEET.





USA.gov is the U.S. government's official web portal to all federal, state and local government web resources and services.